This is the latest recevied weather packets stored in our database for station/object WD9EKA. If no packets are shown the sender has not sent any weather packets the latest 10 day(s).
| Time | Temp. | Humidity | Pressure | Rain* | Wind** | Luminosity | Snow |
|---|---|---|---|---|---|---|---|
| 1777992917 | 9.44° C | 99% | 1004.9 hPa | 0.76 mm | - | - | - |
| 1777992597 | 9.44° C | 99% | 1004.7 hPa | 0.76 mm | - | - | - |
| 1777992277 | 10° C | 99% | 1004.7 hPa | 1.02 mm | - | - | - |
| 1777991957 | 10.56° C | 99% | 1005.1 hPa | 1.52 mm | - | - | - |
| 1777991637 | 11.11° C | 99% | 1005 hPa | 2.03 mm | - | - | - |
| 1777991317 | 11.67° C | 99% | 1004.7 hPa | 1.78 mm | - | - | - |
| 1777990997 | 11.67° C | 99% | 1004.8 hPa | 2.29 mm | - | - | - |
| 1777990677 | 11.67° C | 99% | 1004.8 hPa | 2.79 mm | - | - | - |
| 1777990357 | 12.22° C | 99% | 1004.3 hPa | 2.79 mm | - | - | - |
| 1777989717 | 12.78° C | 99% | 1004.2 hPa | 2.79 mm | - | - | - |
| 1777989397 | 12.78° C | 99% | 1004 hPa | 2.79 mm | - | - | - |
| 1777989078 | 12.78° C | 99% | 1002.9 hPa | 2.79 mm | - | - | - |
| 1777988757 | 12.78° C | 99% | 1003.4 hPa | 2.54 mm | - | - | - |
| 1777988438 | 12.78° C | 99% | 1003.8 hPa | 2.03 mm | - | - | - |
| 1777988117 | 12.78° C | 99% | 1004 hPa | 1.52 mm | - | - | - |
| 1777987798 | 12.78° C | 99% | 1004 hPa | 1.52 mm | - | - | - |
| 1777987478 | 12.78° C | 99% | 1003.9 hPa | 0.76 mm | - | - | - |
| 1777987157 | 12.78° C | 99% | 1003.9 hPa | 0.25 mm | - | - | - |
| 1777986837 | 13.33° C | 99% | 1004.2 hPa | 0 mm | - | - | - |
| 1777986517 | 13.33° C | 99% | 1003.3 hPa | 0 mm | - | - | - |
| 1777986197 | 12.78° C | 99% | 1003.2 hPa | 0 mm | - | - | - |
| 1777985877 | 13.33° C | 99% | 1003.3 hPa | 0 mm | - | - | - |
| 1777985557 | 13.33° C | 99% | 1003.5 hPa | 0 mm | - | - | - |
| 1777985237 | 13.33° C | 99% | 1003.6 hPa | 0 mm | - | - | - |
| 1777984917 | 13.33° C | 99% | 1004 hPa | 0 mm | - | - | - |
* Rain latest hour (hover to see other rain measurements)
** Current wind speed in m/s (hover to see current wind gust speed)